Retour au catalogue

NOAA 16 DEB

ActifSSO
NORAD 41401·DEBRIS·🇺🇸 United States

Lancé Sep 21, 2000 depuis Vandenberg Space Force Base

Loading…

Prochains Passages (prochaines 24 heures)

TLE

FraisSource: Space-Track

Époque: Sep 14, 2026, 13:16 UTC

1 41401U 00055KE  26257.55291508  .00002200  00000-0  96310-3 0  9993
2 41401  98.6627 291.0052 0016953 277.1539  82.7712 14.24669913546239

Suivez NOAA 16 DEB en temps réel avec AllMySat

Download on the App Store